Starlink 30576

operational
NORAD ID: 58065 Int'l Des: 2023-158 Owner: SPXS Country: US Constellation: starlink
LEOCIRCULAR

Über Starlink 30576

Beschreibung wird geladen...

Live-Position

3D-Globus wird geladen...

Nächste Überflüge

Höhenverlauf

Altitude vs Time

uPlot chart will show altitude changes over time

Zweizeiliger Elementsatz

1 58065U 23158Q 25305.61782447 .00000117 00000-0 23743-4 0 9999
2 58065 43.0051 6.4427 0001345 267.2419 92.8270 15.02531157114268
Epoch: 1. Nov. 2025 • Age: 55 hours

Aktueller Status

Höhe 563.2 km
Geschwindigkeit 7.59 km/s
Subsatellitenpunkt 43.13°N, 76.05°E
Startdatum 13. Okt. 2023
Alter 2 years
Typ internet

Technische Details

Klassifizierung Payload
Masse 730.00 kg
Trockenmasse 700.00 kg
Gesamtmasse 730.00 kg
Länge 0.30 m
Durchmesser 4.10 m
Spannweite 29.00 m
Form Box + pan
Hersteller SPXS
Bus-Typ Starlink V2M
Phasenstatus In Orbit
Besitzer/Staat SPXS/US

Große Konstellationen

Loading constellations...